Location: Lanoux
(43.1180°N, 1.4255°E)
Time: 15:09:22
(UTC+00:00)

NOAA 15 - Visible Passes

Search period start: 19 April 2026 00:00
Search period end: 29 April 2026 00:00
Orbit: 794 x 809 km, 98.5° (Epoch: 19 April)

Date Brightness Start Highest point End Pass type
(mag) Time Alt. Az. Time Alt. Az. Time Alt. Az.
21 Apr 7.5 19:45:25 10° WSW 19:48:14 14° W 19:51:03 10° WNW visible
22 Apr 7.0 19:17:24 10° SSW 19:21:42 25° W 19:26:00 10° NW visible
25 Apr 7.4 19:39:43 10° SW 19:42:55 16° W 19:46:08 10° NW visible
